Flag for U.S.A. Weather past 2 weeks in Binghamton, New York, U.S.A.

Now
34 °F

Low clouds.


Feels Like: 25 °F
Forecast: 34 / 45 °F
Wind: 13 mph from Northwest

Location: Binghamton Regional Airport

Current Time: Dec 28, 2014 at 3:58:49 PM

Latest Report: Dec 28, 2014 at 2:53 PM


Visibility: 10 mi

Pressure: 29.96 "Hg

Humidity: 88%

Dew point: 31 °F

Location of BinghamtonLocation

Historic Weather in Binghamton — Graph

°F

Binghamton temperature yesterday

Maximum temperature yesterday: 48 °F (at 1:53 PM)
Minimum temperature yesterday: 34 °F (at 12:53 AM)
Average temperature yesterday: 41 °F

Past Weeks' High & Low Weather Summary

 TemperatureHumidityPressure
High56 °F (Dec 25, 12:53 AM)100% (Dec 13, 4:53 PM)30.34 "Hg (Dec 13, 4:53 PM)
Low22 °F (Dec 19, 8:53 AM)54% (Dec 28, 12:53 AM)29.38 "Hg (Dec 24, 11:53 PM)
Average34 °F87%30.02 "Hg
* Reported Dec 13 2:53 PM — Dec 28 2:00 PM, Binghamton, Weather by CustomWeather, © 2014

Note: Actual official high and low records may vary slightly from our data, if they occured in-between our weather recording intervals... More about our weather records

Advertising

Binghamton weather history for previous 24 hours

 ConditionsComfort  
Time TempWeatherWind HumidityBarometerVisibility
2:00 PM
Dec 28
35 °FCloudy.13 mph88%29.90 "Hg10 mi
12:53 PM39 °FMostly cloudy.7 mph86%29.93 "Hg10 mi
11:53 AM37 °FOvercast.7 mph89%29.94 "Hg10 mi
10:53 AM37 °FMostly cloudy.6 mph89%29.94 "Hg10 mi
9:53 AM38 °FMostly cloudy.9 mph90%29.94 "Hg10 mi
8:53 AM40 °FLow clouds.12 mph93%29.91 "Hg10 mi
7:53 AM41 °FFog.7 mph100%29.87 "Hg1 mi
7:00 AM41 °FLight rain. Fog.7 mph100%29.84 "Hg1 mi
6:02 AM41 °FRain. Fog.8 mph100%29.84 "Hg4 mi
5:53 AM41 °FLight rain. Fog.9 mph100%29.86 "Hg6 mi
4:53 AM41 °FLight rain. Mostly cloudy.12 mph96%29.87 "Hg7 mi
4:03 AM41 °FRain. Fog.9 mph96%29.85 "Hg4 mi
3:53 AM41 °FLight rain. Fog.9 mph96%29.88 "Hg4 mi
2:53 AM42 °FLight rain. Overcast.10 mph79%29.89 "Hg7 mi
1:53 AM46 °FOvercast.7 mph58%29.89 "Hg10 mi
12:53 AM47 °FMostly cloudy.9 mph54%29.90 "Hg10 mi
11:53 PM
Dec 27
46 °FOvercast.9 mph58%29.94 "Hg10 mi
10:53 PM46 °FPartly cloudy.13 mph61%29.98 "Hg10 mi
9:53 PM46 °FMostly cloudy.9 mph63%30.01 "Hg10 mi
8:53 PM45 °FPartly cloudy.9 mph63%30.05 "Hg10 mi
7:53 PM45 °FOvercast.10 mph65%30.07 "Hg10 mi
6:53 PM45 °FOvercast.7 mph65%30.07 "Hg10 mi
5:53 PM44 °FClear.6 mph68%30.09 "Hg10 mi
4:53 PM45 °FPassing clouds.7 mph65%30.09 "Hg10 mi
3:53 PM47 °FOvercast.8 mph61%30.10 "Hg10 mi
Weather by CustomWeather, © 2014

See weather overviewHow to use our weather pages